Regional Weather Roundup
Issued by NWS

Home | Current Version | Previous Version | Graphics & Text | Print | Product List | Glossary On
Versions: 1 2 3 4 5 6 7 8 9 10 11 12 13 14 15 16 17 18 19 20 21 22 23 24 25 26 27 28 29 30 31 32 33 34 35 36 37 38 39 40 41 42 43 44 45 46 47 48 49 50
304
ASUS43 KLMK 311710
RWRKY
KENTUCKY REGIONAL WEATHER ROUNDUP
NATIONAL WEATHER SERVICE LOUISVILLE KY
100 PM EDT WED AUG 31 2016

NOTE "FAIR" INDICATES FEW OR NO CLOUDS BELOW 12,000 FEET
WITH NO SIGNIFICANT WEATHER AND/OR OBSTRUCTIONS TO VISIBILITY.

KYZ001>023-026-027-061>063-070>075-311800-
WESTERN AND SOUTH CENTRAL KENTUCKY

CITY           SKY/WX    TMP DP  RH WIND       PRES   REMARKS
PADUCAH        SUNNY     87  73  62 NW8       30.01F HX  94
HENDERSON      MOSUNNY   88  70  55 NW7       29.99F HX  92
OWENSBORO      MOSUNNY   87  73  62 NW6       30.01F HX  94
HOPKINSVILLE   MOSUNNY   88  71  56 VRB2      29.99F HX  93
BOWLING GREEN  PTSUNNY   87  70  56 NW6       30.00F HX  92
GLASGOW        RAIN      87  72  60 N7        30.00F HX  93
$$

KYZ024-025-028>034-038-045-046-053-311800-
NORTH CENTRAL KENTUCKY

CITY           SKY/WX    TMP DP  RH WIND       PRES   REMARKS
LOUISVILLE/SDF PTSUNNY   87  71  58 CALM      29.99F HX  93
LOUISVILLE/LOU SUNNY     86  71  60 N6        30.00F HX  91
FORT KNOX      SUNNY     86  72  64 W9        29.99F HX  92
$$

KYZ035>037-039>044-047>052-055>060-089>105-311800-
NORTHEAST KENTUCKY

CITY           SKY/WX    TMP DP  RH WIND       PRES   REMARKS
LEXINGTON      SUNNY     90  68  48 W9        30.00F HX  94
COVINGTON      MOSUNNY   84  71  65 W9        30.00F
FRANKFORT      SUNNY     88  69  53 NW12      29.99F HX  92
$$

KYZ054-064>069-076>088-106>120-311800-
SOUTHEAST KENTUCKY

CITY           SKY/WX    TMP DP  RH WIND       PRES   REMARKS
JACKSON        SUNNY     84  69  60 CALM      30.03F
LONDON         PTSUNNY   86  66  51 NW7       30.02F
SOMERSET       SUNNY     86  66  51 NW5       30.02F
MIDDLESBORO    SUNNY     87  71  59 NE5       30.02F HX  92
MONTICELLO     SUNNY    N/A N/A N/A N8        30.02F
$$





USA.gov is the U.S. government's official web portal to all federal, state and local government web resources and services.